Regional Weather Roundup
Issued by NWS Goodland, KS

Home | Current Version | Previous Version | Graphics & Text | Print | Product List | Glossary On
Versions: 1 2 3 4 5 6 7 8 9 10 11 12 13 14 15 16 17 18 19 20 21 22 23 24 25 26 27 28 29 30 31 32 33 34 35 36 37 38 39 40 41 42 43 44 45 46 47 48 49 50
000
ASUS43 KGLD 292359
RWRGLD

GOODLAND FORECAST AREA HOURLY WEATHER ROUNDUP
NATIONAL WEATHER SERVICE GOODLAND KS
600 PM MDT SUN MAR 29 2015

...OFFICIAL OBSERVATIONS...

CITY           SKY/WX    TMP DP  RH WIND       PRES   REMARKS
GOODLAND KS    SUNNY     63  17  17 NE7       30.16F
HILL CITY KS   SUNNY     65  19  17 N10       30.15S
IMPERIAL NEB     N/A     63  17  17 VRB6      30.14F
MCCOOK NEB     SUNNY     65  16  15 N8        30.14R
AKRON CO       PTSUNNY   60  21  22 S5        30.16F
BURLINGTON CO  SUNNY     62  17  17 CALM      30.18F
LIMON CO       SUNNY     58  20  22 S6        30.19F
$$

...UNOFFICIAL OBSERVATIONS...

CITY           SKY/WX    TMP DP  RH WIND       PRES   REMARKS
COLBY KS       SUNNY     64  27  24 N7        30.18S
GOVE KS          N/A     65  32  29 MISG        N/A
LENORA KS        N/A     63  32  31 MISG        N/A
NORTON KS      SUNNY     63   1   8 N10       30.13S
SHARON SPRINGS   N/A     64  22  20 CALM        N/A
TRIBUNE KS     SUNNY     66  34  30 N10       30.19S
KIT CARSON CO    N/A     64  23  21 MISG        N/A
YUMA CO          N/A     62  20  20 CALM        N/A
$$



USA.gov is the U.S. government's official web portal to all federal, state and local government web resources and services.